DW1436 Weather Reports


time (UTC)temp
C
wind
direction
speed
KPH
gust
KPH
rain 1hr
cm
rain 24hr
cm
rain mn
cm
humidity
%
barometer
mb
20260506073002 7 0 1.6 1.6 0.00 0.00 0.00 77 1016.2
20260506072503 7 0 1.6 1.6 0.00 0.00 0.00 79 1016.2
20260506072024 6 0 1.6 1.6 0.00 0.00 0.00 81 1016.2
20260506071503 6 0 1.6 1.6 0.00 0.00 0.00 84 1016.1
20260506071003 5 0 1.6 1.6 0.00 0.00 0.00 85 1016.2
20260506070502 5 0 1.6 1.6 0.00 0.00 0.00 86 1016.2
20260506062502 3 0 4.8 4.8 0.00 0.00 0.00 88 1016.0
20260506062003 3 0 0.0 0.0 0.00 0.00 0.00 88 1015.9
20260506061504 3 0 0.0 0.0 0.00 0.00 0.00 88 1015.9
20260506061003 3 0 0.0 0.0 0.00 0.00 0.00 88 1015.7
20260506060504 3 0 0.0 0.0 0.00 0.00 0.00 87 1015.7
20260506051024 2 0 0.0 0.0 0.00 0.00 0.00 85 1015.7
20260506050502 2 0 1.6 1.6 0.00 0.00 0.00 85 1015.7
20260506045002 2 0 4.8 4.8 0.00 0.00 0.00 85 1015.8
20260506044504 2 0 4.8 4.8 0.00 0.00 0.00 86 1015.8
20260506044023 2 0 4.8 4.8 0.00 0.00 0.00 86 1015.7
20260506043502 2 0 1.6 1.6 0.00 0.00 0.00 86 1015.7
20260506043004 2 0 1.6 1.6 0.00 0.00 0.00 86 1015.7
20260506042503 2 0 1.6 1.6 0.00 0.00 0.00 86 1015.8
20260506042003 2 0 1.6 1.6 0.00 0.00 0.00 86 1015.8
20260506041503 2 0 1.6 1.6 0.00 0.00 0.00 84 1015.8
20260506041004 2 0 1.6 1.6 0.00 0.00 0.00 84 1015.8
20260506040502 2 0 0.0 0.0 0.00 0.00 0.00 84 1015.8
20260506040004 2 0 1.6 1.6 0.00 0.00 0.00 84 1015.8
20260506035523 2 0 1.6 1.6 0.00 0.00 0.00 84 1015.8
20260506035002 2 0 1.6 1.6 0.00 0.00 0.00 84 1015.8
20260506034503 2 0 1.6 1.6 0.00 0.00 0.00 84 1015.9
20260506034002 2 0 0.0 0.0 0.00 0.00 0.00 84 1015.9
20260506033503 2 0 0.0 0.0 0.00 0.00 0.00 83 1015.9
20260506033004 2 0 0.0 0.0 0.00 0.00 0.00 83 1015.9
20260506032502 2 0 0.0 0.0 0.00 0.00 0.00 83 1015.9
20260506032004 3 0 0.0 0.0 0.00 0.00 0.00 83 1016.0
20260506031524 3 0 0.0 0.0 0.00 0.00 0.00 82 1015.9
20260506031026 3 0 0.0 0.0 0.00 0.00 0.00 82 1015.9
20260506030504 3 0 1.6 1.6 0.00 0.00 0.00 82 1016.0
20260506030002 3 0 1.6 1.6 0.00 0.00 0.00 82 1015.9
20260506025504 3 0 1.6 1.6 0.00 0.00 0.00 82 1015.9
20260506025004 3 0 1.6 1.6 0.00 0.00 0.00 82 1015.9
20260506024503 3 0 1.6 1.6 0.00 0.00 0.00 82 1015.8
20260506024003 3 0 4.8 4.8 0.00 0.00 0.00 82 1015.8
20260506023503 3 0 4.8 4.8 0.00 0.00 0.00 82 1015.8
20260506023024 3 0 4.8 4.8 0.00 0.00 0.00 82 1015.9
20260506022503 3 0 1.6 1.6 0.00 0.00 0.00 82 1015.9
20260506022004 3 0 1.6 1.6 0.00 0.00 0.00 82 1015.9
20260506021503 3 0 1.6 1.6 0.00 0.00 0.00 81 1015.9
20260506021002 3 0 1.6 1.6 0.00 0.00 0.00 81 1016.0
20260506020504 3 0 6.4 6.4 0.00 0.00 0.00 81 1016.0
20260506020002 3 0 6.4 6.4 0.00 0.00 0.00 81 1016.0
20260506015502 3 33 0.0 6.4 0.00 0.00 0.00 82 1016.0
20260506015003 3 32 0.0 6.4 0.00 0.00 0.00 82 1016.0
20260506014504 3 18 1.6 4.8 0.00 0.00 0.00 82 1016.1
20260506014002 3 8 1.6 4.8 0.00 0.00 0.00 82 1016.1
20260506013502 3 0 0.0 4.8 0.00 0.00 0.00 82 1015.9
20260506013025 3 0 4.8 4.8 0.00 0.00 0.00 82 1016.0
20260506012524 3 0 4.8 4.8 0.00 0.00 0.00 82 1015.9
20260506012004 3 0 1.6 1.6 0.00 0.00 0.00 82 1016.0
20260506011502 3 0 1.6 1.6 0.00 0.00 0.00 82 1016.0
20260506011004 4 0 1.6 1.6 0.00 0.00 0.00 82 1016.0
20260506010503 4 0 1.6 1.6 0.00 0.00 0.00 82 1016.0
20260506010002 4 0 1.6 1.6 0.00 0.00 0.00 82 1016.1
20260506005502 4 0 4.8 4.8 0.00 0.00 0.00 82 1016.0
20260506005004 4 0 4.8 4.8 0.00 0.00 0.00 82 1016.0
20260506004504 4 0 4.8 4.8 0.00 0.00 0.00 82 1016.1
20260506004003 4 0 4.8 4.8 0.00 0.00 0.00 82 1016.1
20260506003503 4 0 4.8 4.8 0.00 0.00 0.00 82 1016.1
20260506003023 4 0 4.8 4.8 0.00 0.00 0.00 81 1016.1
20260506002504 5 0 4.8 4.8 0.00 0.00 0.00 81 1016.1
20260506002002 5 0 0.0 4.8 0.00 0.00 0.00 81 1016.2
20260506001504 5 0 0.0 4.8 0.00 0.00 0.00 81 1016.2
20260506001024 5 12 0.0 8.0 0.00 0.00 0.00 81 1016.2
20260506000502 5 14 0.0 8.0 0.00 0.00 0.00 81 1016.2
20260506000004 5 17 1.6 4.8 0.00 0.00 0.00 80 1016.2
20260505235503 5 15 1.6 6.4 0.00 0.00 0.00 80 1016.3
20260505235002 5 8 1.6 8.0 0.00 0.00 0.00 80 1016.3
20260505234504 5 355 1.6 8.0 0.00 0.00 0.00 80 1016.4
20260505234004 5 351 1.6 6.4 0.00 0.00 0.00 79 1016.3
20260505233503 5 358 0.0 6.4 0.00 0.00 0.00 79 1016.3
20260505233002 6 0 4.8 4.8 0.00 0.00 0.00 78 1016.4
20260505232502 6 0 4.8 4.8 0.00 0.00 0.00 78 1016.4
20260505232003 6 0 1.6 1.6 0.00 0.00 0.00 78 1016.4
20260505231502 6 0 1.6 1.6 0.00 0.00 0.00 78 1016.4
20260505231004 6 0 1.6 1.6 0.00 0.00 0.00 78 1016.4
20260505230503 6 0 1.6 1.6 0.00 0.00 0.00 77 1016.4
20260505230025 6 0 1.6 1.6 0.00 0.00 0.00 77 1016.4
20260505225525 6 0 4.8 4.8 0.00 0.00 0.00 77 1016.5
20260505225003 6 0 6.4 6.4 0.00 0.00 0.00 77 1016.5
20260505224524 6 0 6.4 6.4 0.00 0.00 0.00 77 1016.4
20260505224004 6 0 6.4 6.4 0.00 0.00 0.00 77 1016.5
20260505223524 6 0 0.0 6.4 0.00 0.00 0.00 76 1016.5
20260505223002 6 0 6.4 6.4 0.00 0.00 0.00 76 1016.4
20260505222524 6 9 0.0 4.8 0.00 0.00 0.00 75 1016.5
20260505222004 6 9 0.0 6.4 0.00 0.00 0.00 75 1016.5
20260505221502 6 27 1.6 11.3 0.00 0.00 0.00 75 1016.5
20260505221003 7 37 1.6 11.3 0.00 0.00 0.00 74 1016.4
20260505220502 7 37 1.6 8.0 0.00 0.00 0.00 75 1016.5
20260505220003 7 36 1.6 6.4 0.00 0.00 0.00 74 1016.5
20260505215505 7 42 1.6 11.3 0.00 0.00 0.00 74 1016.5
20260505215004 7 47 1.6 11.3 0.00 0.00 0.00 74 1016.4
20260505214504 7 41 1.6 11.3 0.00 0.00 0.00 74 1016.5
20260505214003 7 30 1.6 11.3 0.00 0.00 0.00 73 1016.5
20260505213503 7 38 1.6 11.3 0.00 0.00 0.00 73 1016.5
20260505213025 7 43 1.6 11.3 0.00 0.00 0.00 73 1016.5
20260505212504 7 61 1.6 8.0 0.00 0.00 0.00 73 1016.5
20260505212003 7 58 1.6 8.0 0.00 0.00 0.00 73 1016.6
20260505211524 7 46 3.2 8.0 0.00 0.00 0.00 73 1016.5
20260505211003 7 65 3.2 11.3 0.00 0.00 0.00 73 1016.5
20260505210503 7 76 3.2 16.1 0.00 0.00 0.00 73 1016.5
20260505210004 7 75 4.8 16.1 0.00 0.00 0.00 71 1016.7
20260505205503 7 82 4.8 16.1 0.00 0.00 0.00 73 1016.6
20260505205003 7 81 4.8 16.1 0.00 0.00 0.00 74 1016.6
20260505204504 7 92 3.2 12.9 0.00 0.00 0.00 75 1016.7
20260505204002 7 110 3.2 12.9 0.00 0.00 0.00 75 1016.6
20260505203525 7 77 3.2 12.9 0.00 0.00 0.00 77 1016.5
20260505203004 7 68 3.2 12.9 0.00 0.00 0.00 77 1016.5
20260505202503 7 88 3.2 16.1 0.00 0.00 0.00 77 1016.5
20260505202023 8 88 3.2 16.1 0.00 0.00 0.00 77 1016.5
20260505201503 8 83 1.6 12.9 0.00 0.00 0.00 77 1016.5
20260505201003 8 84 1.6 12.9 0.00 0.00 0.00 78 1016.5
20260505200503 8 82 3.2 12.9 0.00 0.00 0.00 77 1016.5
20260505200004 8 69 3.2 8.0 0.00 0.00 0.00 78 1016.5
20260505195504 8 72 4.8 17.7 0.00 0.00 0.00 77 1016.5
20260505195004 8 83 4.8 17.7 0.00 0.00 0.00 76 1016.5
20260505194525 8 90 4.8 19.3 0.00 0.00 0.00 76 1016.5
20260505194003 8 85 4.8 19.3 0.00 0.00 0.00 77 1016.5
20260505193503 8 83 6.4 19.3 0.00 0.00 0.00 77 1016.4
20260505193025 8 75 4.8 19.3 0.00 0.00 0.00 77 1016.4
20260505192503 8 56 4.8 19.3 0.00 0.00 0.00 76 1016.3
20260505192004 8 55 4.8 19.3 0.00 0.00 0.00 75 1016.3
20260505191503 8 49 6.4 19.3 0.00 0.00 0.00 74 1016.3
20260505191004 8 57 4.8 19.3 0.00 0.00 0.00 74 1016.2
20260505190503 8 57 4.8 19.3 0.00 0.00 0.00 74 1016.1
20260505190003 8 69 6.4 16.1 0.00 0.00 0.00 75 1016.1
20260505185525 8 91 6.4 19.3 0.00 0.00 0.00 76 1016.1
20260505185002 8 87 4.8 19.3 0.00 0.00 0.00 75 1016.1
20260505184504 8 60 4.8 19.3 0.00 0.00 0.00 75 1016.1
20260505184004 8 35 6.4 17.7 0.00 0.00 0.00 76 1016.1
20260505183504 8 61 6.4 17.7 0.00 0.00 0.00 76 1016.0
20260505183004 8 51 6.4 25.7 0.00 0.00 0.00 75 1016.1
20260505182525 8 29 4.8 25.7 0.00 0.00 0.00 75 1016.1
20260505182003 8 43 4.8 12.9 0.00 0.00 0.00 76 1016.0
20260505181503 8 50 4.8 12.9 0.00 0.00 0.00 76 1015.9
20260505181002 8 53 6.4 16.1 0.00 0.00 0.00 76 1015.9
20260505180503 8 70 6.4 16.1 0.00 0.00 0.00 76 1015.9
20260505180004 8 60 6.4 19.3 0.00 0.00 0.00 76 1016.0
20260505175503 8 65 6.4 19.3 0.00 0.00 0.00 76 1016.0
20260505175002 8 86 6.4 29.0 0.00 0.00 0.00 75 1015.9
20260505174504 8 78 6.4 29.0 0.00 0.00 0.00 74 1015.9
20260505174025 8 60 4.8 29.0 0.00 0.00 0.00 75 1016.0
20260505173525 9 70 6.4 24.1 0.00 0.00 0.00 74 1016.0
20260505173004 8 80 6.4 24.1 0.00 0.00 0.00 74 1016.0
20260505172503 8 80 6.4 24.1 0.00 0.00 0.00 73 1016.0
20260505172004 8 85 6.4 19.3 0.00 0.00 0.00 72 1016.1
20260505171503 9 82 6.4 19.3 0.00 0.00 0.00 73 1016.0
20260505171024 9 73 4.8 17.7 0.00 0.00 0.00 73 1016.0
20260505170504 9 61 4.8 17.7 0.00 0.00 0.00 72 1016.0
20260505170004 9 79 6.4 19.3 0.00 0.00 0.00 72 1016.0
20260505165503 9 85 4.8 25.7 0.00 0.00 0.00 73 1016.0
20260505165003 9 74 4.8 25.7 0.00 0.00 0.00 73 1016.0
20260505164503 9 81 4.8 29.0 0.00 0.00 0.00 75 1015.9
20260505164004 9 78 6.4 29.0 0.00 0.00 0.00 74 1016.0
20260505163504 9 82 6.4 29.0 0.00 0.00 0.00 74 1016.0
20260505163003 9 85 4.8 29.0 0.00 0.00 0.00 74 1016.0
20260505162503 9 84 4.8 25.7 0.00 0.00 0.00 74 1015.9
20260505162004 9 70 6.4 24.1 0.00 0.00 0.00 72 1016.0
20260505161504 9 63 6.4 24.1 0.00 0.00 0.00 72 1016.0
20260505161004 9 79 6.4 24.1 0.00 0.00 0.00 72 1015.9
20260505160502 10 95 6.4 24.1 0.00 0.00 0.00 73 1015.9
20260505153004 10 51 6.4 24.1 0.00 0.00 0.00 75 1015.4
20260505152504 10 44 6.4 24.1 0.00 0.00 0.00 76 1015.5
20260505152004 10 36 8.0 24.1 0.00 0.00 0.00 76 1015.5
20260505151504 10 62 8.0 19.3 0.00 0.00 0.00 75 1015.4
20260505151025 10 85 8.0 19.3 0.00 0.00 0.00 75 1015.4
20260505150503 10 77 8.0 22.5 0.00 0.00 0.00 74 1015.5
20260505140525 11 65 6.4 19.3 0.00 0.00 0.00 66 1015.2
20260505125025 11 79 4.8 19.3 0.00 0.00 0.00 75 1015.0
20260505124504 10 85 4.8 19.3 0.00 0.00 0.00 74 1015.0
20260505124025 10 69 4.8 19.3 0.00 0.00 0.00 74 1014.9
20260505123503 10 65 4.8 17.7 0.00 0.00 0.00 75 1014.9
20260505123004 10 79 4.8 16.1 0.00 0.00 0.00 75 1014.9
20260505122504 10 77 4.8 16.1 0.00 0.00 0.00 74 1015.0
20260505122004 10 64 4.8 12.9 0.00 0.00 0.00 75 1014.9
20260505121504 10 54 4.8 12.9 0.00 0.00 0.00 75 1014.9
20260505121004 10 62 3.2 17.7 0.00 0.00 0.00 75 1014.8
20260505120504 10 75 3.2 17.7 0.00 0.00 0.00 77 1014.8
20260505120003 10 63 4.8 17.7 0.00 0.00 0.00 77 1014.9
20260505115504 10 76 4.8 17.7 0.00 0.00 0.00 78 1014.8
20260505115004 10 77 6.4 17.7 0.00 0.00 0.00 76 1014.8
20260505114504 10 78 6.4 22.5 0.00 0.00 0.00 74 1014.8
20260505114003 10 86 6.4 22.5 0.00 0.00 0.00 73 1014.8
20260505113503 10 77 6.4 19.3 0.00 0.00 0.00 73 1014.7
20260505113004 10 68 8.0 19.3 0.00 0.00 0.00 75 1014.7
20260505112504 10 65 8.0 19.3 0.00 0.00 0.00 75 1014.6
20260505112004 11 65 8.0 29.0 0.00 0.00 0.00 76 1014.7
20260505111504 11 84 6.4 29.0 0.00 0.00 0.00 78 1014.6
20260505111004 11 96 4.8 24.1 0.00 0.00 0.00 79 1014.6
20260505110503 11 67 4.8 19.3 0.00 0.00 0.00 79 1014.6
20260505102003 11 58 3.2 19.3 0.00 0.00 0.00 73 1014.3
20260505101504 11 62 3.2 17.7 0.00 0.00 0.00 74 1014.3
20260505101003 11 74 3.2 17.7 0.00 0.00 0.00 73 1014.3
20260505100525 11 89 1.6 11.3 0.00 0.00 0.00 73 1014.3
20260505100003 11 84 1.6 11.3 0.00 0.00 0.00 72 1014.2
20260505095504 11 70 1.6 11.3 0.00 0.00 0.00 72 1014.2
20260505095003 12 83 0.0 12.9 0.00 0.00 0.00 71 1014.2
20260505094525 12 71 1.6 12.9 0.00 0.00 0.00 70 1014.2
20260505094004 12 39 1.6 8.0 0.00 0.00 0.00 71 1014.2
20260505093525 12 37 1.6 8.0 0.00 0.00 0.00 70 1014.2
20260505093003 12 35 1.6 8.0 0.00 0.00 0.00 70 1014.2
20260505092504 12 52 1.6 8.0 0.00 0.00 0.00 71 1014.2
20260505092004 12 60 1.6 8.0 0.00 0.00 0.00 70 1014.2
20260505091504 12 19 1.6 12.9 0.00 0.00 0.00 71 1014.2
20260505091004 12 12 1.6 12.9 0.00 0.00 0.00 71 1014.2
20260505090503 12 20 1.6 12.9 0.00 0.00 0.00 71 1014.1
20260505090005 12 21 1.6 12.9 0.00 0.00 0.00 70 1014.1
20260505085503 12 43 3.2 12.9 0.00 0.00 0.00 70 1014.1
20260505085003 12 32 3.2 12.9 0.00 0.00 0.00 72 1014.1
20260505084504 12 19 4.8 11.3 0.00 0.00 0.00 70 1014.1
20260505084004 12 26 4.8 11.3 0.00 0.00 0.00 70 1014.2
20260505083504 12 27 4.8 11.3 0.00 0.00 0.00 69 1014.1
20260505083005 12 30 3.2 11.3 0.00 0.00 0.00 70 1014.1
20260505082504 12 27 1.6 11.3 0.00 0.00 0.00 70 1014.2
20260505082004 12 0 0.0 11.3 0.00 0.00 0.00 73 1014.1
20260505081503 11 0 11.3 11.3 0.00 0.00 0.00 73 1014.1
20260505081004 11 0 4.8 4.8 0.00 0.00 0.00 73 1014.2
20260505080524 11 0 4.8 4.8 0.00 0.00 0.00 74 1014.2
20260505080004 11 0 1.6 1.6 0.00 0.00 0.00 75 1014.2
20260505075503 11 0 1.6 1.6 0.00 0.00 0.00 75 1014.2
20260505075003 10 0 1.6 1.6 0.00 0.00 0.00 75 1014.2
20260505074503 10 0 1.6 1.6 0.00 0.00 0.00 75 1014.2
20260505074004 10 0 0.0 0.0 0.00 0.00 0.00 75 1014.2
20260505073525 10 0 0.0 0.0 0.00 0.00 0.00 76 1014.2